Wind_Speed
73 72 71 73 73 69 67 62 56 56 56 55 55 58 58 52 47 47 46 46 46 43 38 35 38 36 32 25 25 22 22 21 22 20 26 32 36 35 37 41 44 43 46 47
75 74 77 78 78 80 79 75 70 69 63 60 60 59 59 55 51 45 50 48 52 47 42 41 43 41 41 35 32 30 27 27 23 21 19 23 32 34 33 35 42 44 46 44
83 84 83 81 85 85 85 81 76 75 69 65 63 60 58 58 60 54 51 54 52 52 49 46 45 43 44 44 39 35 35 32 31 29 25 22 19 19 23 29 29 31 34 36
91 94 91 84 89 86 86 83 83 80 74 66 63 61 57 56 58 58 52 53 56 54 55 53 48 45 45 46 43 44 41 42 37 34 34 32 29 27 26 27 28 30 32 34
94 95 90 89 92 94 90 89 86 79 75 72 68 62 56 60 66 63 64 56 58 57 57 57 54 50 48 45 48 49 47 46 44 41 39 39 39 37 37 38 38 38 40 42
89 92 90 89 92 93 94 83 87 86 83 80 74 69 64 65 64 65 68 62 59 60 57 59 58 56 53 51 49 49 51 51 51 47 45 47 47 46 46 46 48 49 49 50
80 77 77 78 82 87 90 86 84 87 85 81 76 70 70 70 70 67 66 66 64 61 61 59 61 59 59 57 54 53 51 51 53 51 49 50 50 50 52 53 54 56 56 58
71 72 71 70 72 79 79 77 76 78 79 76 73 71 71 74 74 72 70 67 66 67 66 65 65 65 62 61 56 56 52 52 57 59 61 63 64 60 61 59 59 58 60 62
67 70 70 71 69 73 74 74 72 73 76 77 75 74 73 74 75 75 74 73 69 67 70 71 70 65 63 65 63 60 59 58 59 63 63 65 66 68 66 68 68 67 69 69
66 69 71 69 68 68 72 72 73 70 72 73 76 76 75 77 76 75 75 76 74 72 73 72 70 70 70 66 66 64 64 65 63 64 69 71 72 73 75 75 75 76 75 76
61 65 66 67 65 65 69 70 72 73 70 70 72 74 76 78 79 78 76 76 77 77 76 73 73 75 72 70 68 68 68 69 71 69 70 72 74 77 78 78 78 79 81 83
59 62 65 66 62 61 63 67 70 74 73 70 71 73 73 77 79 80 79 78 76 77 79 78 77 75 76 73 72 72 74 74 75 73 73 74 74 77 79 81 83 85 89 90
54 57 58 60 60 57 59 64 67 69 72 70 70 73 75 76 76 76 78 80 80 78 76 75 76 72 72 76 75 74 75 79 80 80 80 80 81 81 83 85 85 87 90 90
51 54 55 57 58 59 56 56 62 66 69 70 67 71 71 74 75 78 76 77 79 80 85 81 81 74 71 76 81 78 82 85 87 88 84 84 86 87 87 88 90 93 95 96
52 54 57 57 53 56 57 56 58 59 63 66 67 69 70 72 76 77 76 74 77 72 73 76 80 81 79 83 88 86 88 92 92 88 89 90 93 90 91 92 94 94 96 100
57 54 55 55 52 49 49 51 57 57 56 56 60 63 68 70 66 71 75 72 72 65 68 72 74 78 80 85 88 89 91 94 96 96 97 98 94 94 96 95 95 99 100 101
52 47 43 46 52 46 47 52 56 53 50 51 56 58 60 64 64 66 69 75 75 74 73 71 70 71 74 77 83 88 88 93 94 95 95 94 94 95 96 100 101 100 101 101
50 47 49 53 49 49 49 50 51 50 50 51 54 56 58 60 64 65 69 73 75 78 76 72 71 73 76 77 76 78 83 87 90 93 96 99 102 102 104 102 101 102 105 107
47 47 49 50 49 49 50 49 49 48 49 51 52 54 56 58 62 68 69 71 77 81 78 73 75 76 77 79 82 84 87 91 95 98 101 104 106 107 104 104 106 109 110 109
40 44 44 45 44 46 48 47 47 46 48 50 51 54 57 59 62 65 67 66 70 75 73 77 77 78 80 84 88 91 92 97 100 103 107 107 105 105 106 107 108 109 111 112
32 32 33 34 36 39 41 43 45 46 48 51 54 56 57 58 60 62 65 67 69 73 71 75 80 81 83 85 90 92 95 98 98 100 101 104 106 106 108 111 112 114 112 114
26 27 30 33 35 37 40 44 46 48 50 51 51 51 53 56 59 60 63 64 66 70 73 77 76 79 83 87 91 94 97 102 104 105 106 107 107 109 111 112 114 113 113 112
30 31 32 34 38 41 44 46 47 48 48 49 49 52 54 55 58 60 63 65 67 70 72 72 75 82 87 89 90 94 97 99 101 103 104 104 104 105 107 108 108 108 108 106
32 34 36 38 39 41 42 44 46 47 48 49 51 53 54 56 56 60 62 64 66 68 69 70 73 77 79 81 82 85 87 88 92 95 96 96 96 98 99 100 100 100 103 105
34 36 39 41 43 45 46 47 49 50 49 49 49 50 50 50 51 53 55 57 59 61 63 66 69 72 74 77 79 80 81 83 85 88 89 90 92 93 94 96 98 99 99 100
35 37 39 41 43 44 46 47 48 48 49 49 49 50 51 51 52 53 56 58 60 62 64 66 68 70 72 74 76 78 80 82 85 86 87 89 91 91 92 93 94 94 94 94
39 42 43 44 46 47 48 49 50 51 51 53 54 54 54 55 56 57 59 60 62 63 65 67 69 71 73 75 77 79 81 83 84 85 85 86 88 88 88 88 88 87 87 85
Wind_Direction
239 243 246 246 248 248 250 254 253 254 257 261 260 261 264 266 261 261 266 268 267 272 270 283 283 277 275 275 281 288 297 302 305 297 277 269 266 264 260 256 255 260 260 271
241 242 244 246 247 249 253 257 259 260 260 258 259 260 262 262 264 255 253 264 268 270 266 271 279 275 274 276 277 279 282 290 295 305 307 292 283 282 274 272 265 269 268 276
241 243 244 248 252 253 255 254 254 258 261 260 254 260 264 260 257 252 249 255 257 266 267 269 272 270 271 272 274 277 279 280 286 290 291 295 296 288 282 279 285 284 282 283
244 248 249 248 253 256 257 258 258 260 259 256 256 259 260 256 253 257 249 248 254 255 261 262 264 268 268 268 275 274 275 280 279 284 288 291 291 292 291 290 288 286 285 283
245 247 249 251 253 256 257 261 260 258 256 258 256 255 252 246 248 251 255 256 252 254 257 260 266 264 269 269 267 268 272 276 279 277 279 283 284 284 283 284 283 284 286 285
246 248 249 249 252 254 254 252 255 256 257 258 254 252 245 244 243 248 254 256 256 256 254 257 265 265 266 267 269 272 269 270 271 271 274 277 277 278 277 276 279 283 284 285
246 247 248 246 246 249 251 251 252 254 256 255 254 251 245 243 243 244 246 250 255 256 254 255 260 266 264 267 270 271 270 269 271 267 268 268 271 273 274 277 278 277 278 282
247 248 248 245 244 247 248 248 247 249 251 250 249 247 244 246 245 244 245 246 248 254 256 256 259 262 264 266 266 269 275 272 269 270 268 268 270 269 271 272 272 274 278 282
248 249 248 246 242 246 249 249 245 245 246 247 247 245 245 244 242 243 244 244 245 247 251 255 258 259 262 264 265 265 271 273 269 269 272 266 269 271 271 274 273 273 275 281
245 246 246 245 244 242 245 246 247 243 243 244 245 243 241 242 243 244 245 246 245 245 249 254 256 258 258 261 263 264 268 270 271 270 272 274 275 275 278 277 275 276 277 280
244 246 248 248 246 245 246 247 249 249 244 243 243 244 243 242 241 242 244 244 245 247 246 248 255 258 258 262 261 263 267 268 269 270 269 271 273 273 276 274 276 279 279 282
247 248 249 250 248 246 244 245 246 248 248 245 242 242 243 242 243 243 242 243 244 245 247 244 246 253 258 259 262 263 264 266 269 268 268 269 270 271 272 273 274 276 279 283
243 247 249 251 253 248 245 245 246 247 250 247 243 241 241 243 243 243 244 244 242 243 245 248 247 248 253 259 261 262 263 264 265 265 266 269 269 270 272 274 275 278 279 282
244 246 248 248 250 252 250 245 245 245 246 249 246 245 244 242 244 244 246 248 247 245 247 245 250 250 252 256 258 258 260 261 263 264 265 266 268 269 271 275 275 276 278 280
246 246 247 249 246 247 247 246 247 245 245 245 245 246 247 244 243 247 246 246 249 250 251 251 251 250 250 253 257 258 258 260 263 264 264 267 270 269 270 273 276 278 280 282
249 249 250 251 250 245 246 247 250 251 247 246 247 248 250 252 248 248 252 255 255 252 245 247 248 248 250 251 253 256 258 261 263 263 264 266 267 269 271 273 276 279 280 280
254 254 253 251 250 248 243 243 247 253 251 246 246 248 249 252 253 252 248 249 254 254 255 255 251 250 248 250 253 256 258 260 262 265 266 267 268 269 270 271 274 274 276 278
253 252 248 246 247 246 247 249 250 252 252 250 248 248 251 254 255 257 255 254 254 255 257 257 255 252 249 248 252 254 258 260 262 263 266 267 266 267 270 272 273 275 276 277
250 249 248 250 252 248 248 251 253 253 254 255 254 255 255 256 256 258 260 258 256 257 255 253 253 252 252 253 254 255 257 259 262 263 265 267 269 271 273 275 277 278 279 280
252 253 252 253 253 253 252 253 255 254 253 254 256 257 256 255 254 253 254 256 256 256 254 253 253 253 254 253 253 255 257 259 261 263 266 268 270 271 273 276 279 281 282 284
260 260 257 257 257 255 257 257 256 255 256 256 258 261 263 261 259 258 258 257 257 258 256 255 256 257 256 256 257 260 263 263 263 265 267 270 272 274 274 276 280 283 285 285
260 257 255 255 257 258 258 259 261 263 266 269 270 270 268 266 264 263 262 261 261 260 259 258 258 258 257 259 260 261 264 265 265 267 269 271 273 275 278 279 281 283 284 286
255 259 260 259 259 260 261 262 263 264 265 266 266 266 267 267 266 266 266 266 265 265 264 264 263 262 262 263 264 265 266 266 267 270 273 275 277 277 279 282 285 286 288 289
256 256 257 258 260 262 263 265 268 269 269 268 267 267 266 267 267 268 268 269 269 269 270 270 269 269 270 272 273 274 274 275 275 275 277 279 280 282 283 284 286 286 287 287
256 257 259 261 263 265 267 268 270 271 271 270 268 265 265 265 266 267 268 269 270 272 273 274 273 273 273 274 275 276 277 278 279 280 280 281 282 283 284 285 286 287 289 290
264 264 266 267 268 269 270 272 273 274 274 275 276 277 277 276 275 274 273 273 273 273 273 273 274 274 276 277 278 279 279 279 279 280 282 282 283 285 287 288 289 291 292 293
276 276 275 275 276 276 277 278 278 278 278 279 279 279 278 278 278 278 278 277 277 277 277 278 278 278 279 279 279 279 280 281 283 284 285 286 288 290 291 291 292 293 293 294
Height
10456 10460 10464 10471 10476 10481 10490 10496 10504 10507 10510 10512 10512 10511 10510 10517 10524 10525 10523 10524 10524 10525 10525 10525 10524 10524 10526 10526 10526 10526 10525 10523 10521 10518 10517 10518 10519 10521 10522 10522 10522 10521 10521 10520
10437 10442 10445 10451 10459 10465 10470 10477 10488 10490 10495 10493 10496 10498 10499 10499 10506 10513 10515 10514 10511 10513 10514 10514 10514 10514 10515 10517 10518 10517 10516 10516 10514 10512 10510 10507 10506 10507 10509 10511 10510 10510 10509 10509
10420 10421 10428 10440 10437 10444 10450 10457 10465 10470 10475 10478 10481 10485 10487 10488 10489 10495 10502 10502 10504 10502 10503 10503 10503 10504 10506 10507 10509 10508 10507 10507 10506 10505 10504 10502 10499 10499 10498 10499 10498 10497 10497 10496
10399 10399 10409 10426 10419 10425 10428 10437 10439 10450 10457 10461 10465 10469 10473 10471 10473 10477 10483 10488 10490 10491 10491 10490 10492 10494 10495 10498 10498 10499 10498 10497 10496 10495 10494 10493 10491 10490 10489 10488 10488 10487 10487 10486
10375 10381 10398 10408 10406 10400 10408 10414 10416 10426 10434 10440 10446 10453 10457 10449 10454 10461 10463 10471 10475 10477 10480 10479 10480 10483 10484 10486 10487 10488 10489 10487 10487 10485 10483 10483 10483 10482 10481 10480 10478 10477 10476 10474
10353 10359 10374 10385 10381 10378 10377 10399 10394 10399 10408 10417 10426 10434 10438 10436 10442 10446 10451 10457 10460 10462 10467 10469 10469 10469 10472 10473 10474 10475 10477 10477 10477 10476 10473 10472 10471 10469 10469 10468 10467 10465 10463 10460
10326 10337 10350 10357 10354 10353 10360 10373 10381 10383 10388 10396 10405 10414 10419 10421 10424 10430 10433 10439 10443 10448 10450 10455 10456 10456 10458 10459 10459 10460 10463 10464 10465 10464 10462 10459 10457 10456 10455 10454 10452 10450 10447 10444
10312 10317 10325 10335 10337 10332 10338 10351 10360 10362 10366 10375 10385 10391 10399 10404 10405 10410 10415 10421 10428 10432 10434 10438 10441 10442 10443 10445 10446 10445 10449 10450 10450 10449 10448 10445 10443 10441 10440 10439 10436 10434 10431 10429
10298 10299 10304 10308 10318 10320 10324 10329 10337 10344 10344 10351 10360 10368 10377 10382 10385 10390 10395 10402 10410 10414 10416 10419 10424 10428 10430 10429 10430 10431 10431 10432 10433 10433 10432 10429 10428 10426 10424 10422 10420 10417 10415 10411
10277 10277 10279 10288 10296 10305 10305 10309 10314 10323 10327 10332 10335 10344 10352 10358 10366 10371 10377 10383 10390 10395 10399 10403 10407 10409 10410 10413 10416 10415 10414 10414 10415 10414 10412 10411 10409 10407 10406 10403 10401 10398 10395 10390
10262 10260 10263 10267 10279 10288 10289 10293 10296 10299 10309 10315 10320 10322 10330 10338 10343 10350 10356 10361 10366 10371 10377 10385 10389 10389 10393 10396 10398 10398 10396 10397 10396 10395 10394 10392 10391 10389 10386 10383 10379 10376 10372 10368
10245 10245 10247 10250 10261 10268 10273 10275 10277 10279 10286 10297 10302 10304 10313 10317 10322 10330 10335 10341 10347 10351 10355 10361 10368 10371 10372 10375 10378 10379 10378 10376 10376 10375 10373 10371 10370 10368 10366 10362 10358 10354 10349 10347
10230 10230 10234 10237 10240 10249 10255 10259 10262 10265 10266 10275 10283 10289 10292 10297 10304 10310 10316 10322 10328 10332 10337 10341 10344 10350 10355 10354 10355 10357 10356 10355 10353 10352 10351 10350 10348 10346 10342 10338 10335 10331 10327 10324
10217 10218 10220 10223 10226 10229 10236 10242 10244 10247 10252 10257 10266 10270 10276 10280 10285 10292 10298 10303 10308 10315 10316 10324 10324 10331 10334 10334 10332 10333 10332 10330 10329 10329 10330 10328 10325 10323 10320 10318 10313 10308 10303 10299
10201 10204 10204 10205 10213 10214 10217 10223 10226 10231 10235 10239 10246 10251 10256 10262 10268 10274 10279 10286 10288 10296 10300 10302 10305 10308 10311 10312 10310 10310 10308 10305 10303 10309 10308 10306 10304 10302 10298 10294 10291 10285 10280 10273
10181 10187 10189 10191 10195 10201 10205 10210 10212 10215 10221 10227 10231 10236 10240 10244 10252 10257 10258 10263 10266 10273 10277 10280 10282 10284 10287 10289 10287 10286 10284 10283 10281 10282 10282 10280 10279 10277 10275 10272 10267 10261 10256 10250
10170 10176 10179 10181 10183 10189 10192 10195 10197 10201 10206 10210 10213 10218 10223 10227 10232 10237 10241 10244 10247 10249 10252 10257 10259 10262 10263 10265 10264 10261 10263 10258 10257 10256 10254 10254 10254 10251 10247 10243 10238 10233 10229 10223
10160 10162 10165 10166 10170 10174 10177 10181 10185 10188 10189 10192 10196 10199 10203 10207 10210 10214 10218 10223 10226 10228 10232 10234 10235 10238 10239 10240 10240 10239 10238 10236 10234 10231 10228 10224 10221 10219 10217 10214 10210 10205 10200 10194
10148 10151 10153 10156 10159 10162 10165 10168 10172 10175 10178 10179 10181 10184 10188 10189 10192 10195 10198 10200 10204 10205 10206 10210 10214 10214 10215 10216 10216 10214 10214 10211 10209 10207 10203 10199 10196 10193 10190 10186 10181 10177 10171 10165
10138 10140 10143 10146 10149 10152 10154 10157 10159 10161 10163 10164 10167 10168 10170 10171 10173 10176 10177 10179 10181 10181 10185 10188 10190 10191 10192 10192 10191 10189 10189 10186 10183 10181 10177 10173 10170 10166 10162 10157 10151 10145 10138 10133
10130 10132 10134 10137 10139 10141 10143 10144 10145 10147 10148 10150 10151 10152 10154 10155 10156 10157 10158 10158 10160 10161 10162 10163 10165 10166 10166 10166 10165 10165 10164 10161 10157 10153 10150 10147 10142 10137 10131 10126 10121 10115 10109 10102
10121 10123 10125 10126 10127 10129 10130 10130 10131 10132 10134 10135 10135 10135 10136 10135 10135 10136 10137 10137 10137 10138 10138 10139 10140 10141 10140 10140 10140 10137 10135 10133 10130 10126 10122 10117 10113 10109 10104 10098 10093 10086 10078 10071
10112 10113 10115 10116 10117 10118 10118 10119 10119 10119 10119 10119 10118 10118 10117 10117 10116 10116 10116 10116 10117 10116 10116 10116 10117 10116 10114 10113 10111 10109 10106 10104 10102 10099 10094 10090 10085 10080 10074 10068 10063 10056 10049 10041
10102 10102 10102 10102 10102 10103 10103 10103 10103 10103 10102 10102 10101 10100 10099 10098 10098 10097 10097 10096 10095 10095 10094 10094 10093 10092 10090 10089 10087 10085 10082 10078 10075 10071 10068 10063 10058 10053 10047 10040 10032 10025 10018 10009
10093 10092 10091 10090 10090 10089 10088 10087 10086 10085 10084 10083 10082 10081 10080 10079 10078 10077 10077 10076 10075 10074 10073 10072 10070 10069 10067 10065 10062 10059 10055 10051 10048 10044 10040 10035 10029 10022 10015 10007 10001 9994 9987 9978
10083 10082 10081 10080 10078 10077 10075 10074 10072 10071 10069 10067 10065 10064 10063 10062 10060 10059 10057 10056 10054 10053 10051 10049 10046 10043 10041 10038 10035 10031 10028 10024 10019 10015 10009 10003 9997 9991 9985 9978 9971 9963 9956 9948
10072 10070 10068 10066 10064 10062 10059 10057 10055 10053 10051 10049 10047 10045 10043 10041 10039 10037 10035 10034 10032 10030 10028 10025 10022 10020 10017 10013 10009 10005 10001 9997 9992 9986 9981 9975 9970 9964 9957 9950 9943 9935 9928 9920